Tracking 22780 objects as of 11-Apr-2021
HD Live streaming from Space Station
objects crossing your sky now

THOR BURNER 2A DEB

Track THOR BURNER 2A DEB now!
10-day predictions


NORAD ID: 29139
Int'l Code: 1974-015F
Perigee: 754.2 km
Apogee: 845.9 km
Inclination: 99.0 °
Period: 100.7 minutes
Semi major axis: 7171 km
RCS: 0.0038 m2 (small)
Launch date: March 16, 1974
Source: United States (US)
Launch site: AIR FORCE WESTERN TEST RANGE (AFWTR)

Note: This is SATELLITE DEBRIS
aabbcc
Your satellite tracking list
Your tracking list is empty




NASA's NSSDC Master Catalog

Two Line Element Set (TLE):
1 29139U 74015F   21100.57490948  .00000135  00000-0  70006-4 0  9997
2 29139  98.9929  13.7999 0063883 291.5848 191.4339 14.29646094809175
Source of the keplerian elements: AFSPC